This demonstration page uses our WeatherBlox Daily Observations layout. Learn more.

41.55636, -103.73856

Hourly Observations for August 28, 2015

Temp ( °F °C ) Dew Point ( °F °C ) Humidity (%) Winds ( mph kmh ) Pressure ( in mb ) Visibility ( mi km ) Precip ( " mm )
12:53 am 00:53 Clear 59 15 55 12.8 87 87 N 7 11 29.93 1014 10 16.0934 0 0
1:53 am 01:53 Clear 57 13.9 54 12.2 90 90 WNW 7 11 29.93 1014 10 16.0934 0 0
2:53 am 02:53 Clear 59 15 56 13.3 90 90 WNW 6 9 29.94 1014 10 16.0934 0 0
3:53 am 03:53 Clear 57 13.9 55 12.8 93 93 NW 6 9 29.95 1014 10 16.0934 0 0
4:53 am 04:53 Clear 56 13.3 54 12.2 93 93 WNW 8 13 29.95 1014 10 16.0934 0 0
5:53 am 05:53 Clear 57 13.9 53 11.7 87 87 WNW 8 13 29.95 1014 10 16.0934 0 0
6:53 am 06:53 Sunny 58 14.4 52 11.1 81 81 WNW 8 13 29.98 1015 10 16.0934 0 0
7:53 am 07:53 Sunny 61 16.1 53 11.7 75 75 WNW 9 15 30.01 1016 10 16.0934 0 0
8:53 am 08:53 Sunny 67 19.4 53 11.7 61 61 WNW 13 20 30.02 1017 8 12.87472 0 0
9:53 am 09:53 Sunny 73 22.8 52 11.1 48 48 WNW 14 22 30.01 1016 7 11.26538 0 0
10:53 am 10:53 Sunny 77 25 53 11.7 43 43 W 14 22 30.01 1016 7 11.26538 0 0
11:53 am 11:53 Sunny 81 27.2 51 10.6 35 35 W 12 19 30 1016 7 11.26538 0 0
12:53 pm 12:53 Sunny 86 30 51 10.6 30 30 WNW 13 20 29.98 1015 7 11.26538 0 0
1:53 pm 13:53 Sunny 88 31.1 47 8.3 24 24 WNW 10 17 29.96 1015 8 12.87472 0 0
2:53 pm 14:53 Sunny 89 31.7 41 5 19 19 N 10 17 29.96 1014 8 12.87472 0 0
3:53 pm 15:53 Hazy 89 31.7 42 5.6 19 19 N 8 13 29.96 1014 6 9.65604 0 0
4:53 pm 16:53 Hazy 88 31.1 41 5 19 19 N 7 11 29.96 1015 6 9.65604 0 0
5:53 pm 17:53 Hazy 84 28.9 51 10.6 32 32 NE 5 7 29.97 1015 6 9.65604 0 0
6:53 pm 18:53 Hazy 79 26.1 54 12.2 42 42 Calm 29.98 1015 5 8.0467 0 0
7:53 pm 19:53 Clear 71 21.7 57 13.9 61 61 SE 5 7 30.02 1017 7 11.26538 0 0
8:53 pm 20:53 Clear 66 18.9 56 13.3 70 70 E 3 6 30.04 1017 7 11.26538 0 0
9:53 pm 21:53 Clear 64 17.8 55 12.8 73 73 E 3 6 30.04 1017 7 11.26538 0 0
10:53 pm 22:53 Clear 64 17.8 51 10.6 63 63 Calm 30.04 1017 7 11.26538 0 0
11:53 pm 23:53 Clear 61 16.1 51 10.6 70 70 E 5 7 30.04 1017 7 11.26538 0 0

Powered by AerisWeather